[[{"header":{"parameterUnit":"m.s-1","parameterCategory":1,"la1":30.2991,"la2":30.254,"lo1":-89.0895,"lo2":-89.0444,"dy":0.0017,"dx":0.0017,"nx":28,"ny":28,"refTime":"2025-12-04T03:00:00:Z","depth":0,"parameterNumber":2,"parameterNumberName":"U-component_of_WINDS"},"data":[0,0,0,0,0,0,0,0,0,0,0,0,0,0,0,0,0,0,0,0,0,0,0,0,0,0,0,0,0,0,0,0,0,0,0,0,0,0,0,0,0,0,0,0,0,0,0,0,0,0,0,0,0,0,0,0,0,0,-5.3488,-5.3488,0,-5.3423,-5.3422,-5.3421,-5.3221,-5.3217,-5.3212,-5.3208,-5.3147,-5.3149,-5.3152,0,0,0,0,0,0,0,0,0,0,0,0,0,-5.3445,-5.3447,-5.3488,-5.3487,-5.3487,-5.3423,-5.3422,-5.3421,-5.3222,-5.3216,-5.3211,-5.3206,-5.3146,-5.3149,-5.3152,0,0,0,0,0,0,0,0,0,0,0,0,0,-5.3431,-5.3448,-5.3488,-5.3379,-5.3369,-5.3423,-5.3422,-5.3421,-5.3223,-5.3216,-5.321,-5.3203,-5.3145,-5.3149,-5.3153,-5.3309,0,0,-5.3164,-5.3166,0,0,0,0,0,0,0,0,-5.3432,-5.3433,-5.3396,-5.3387,-5.3375,-5.3323,-5.3384,-5.3384,-5.3225,-5.3279,-5.3208,-5.32,-5.3211,-5.3209,-5.3212,-5.3306,-5.3303,-5.3164,-5.3167,-5.3168,-5.3169,0,0,0,0,0,0,0,-5.3433,-5.3434,-5.3462,-5.3396,-5.3383,-5.3335,-5.3326,-5.3383,-5.3283,-5.3273,-5.3259,-5.3253,-5.3204,-5.3209,-5.3209,-5.3303,-5.3164,-5.3168,-5.317,-5.3171,-5.3522,-5.3529,0,0,0,0,0,0,-5.3449,-5.3437,-5.3464,-5.346,-5.3388,-5.3342,-5.3331,-5.3347,-5.3282,-5.3266,-5.3259,-5.3244,-5.3206,-5.3205,-5.3206,-5.3384,-5.3168,-5.3172,-5.3174,-5.3515,-5.3523,-5.3531,0,0,0,0,0,0,-5.3449,-5.3453,-5.3467,-5.3444,-5.3442,-5.3349,-5.3369,-5.3349,-5.3353,-5.3271,-5.3253,-5.3282,-5.32,-5.3201,-5.3284,-5.3379,-5.3173,-5.3177,-5.3507,-5.3517,-5.3527,-5.3743,0,0,0,0,0,0,-5.3449,-5.3455,-5.3512,-5.3447,-5.3444,-5.3546,-5.3375,-5.3353,-5.3359,-5.3339,-5.3287,-5.3272,-5.3195,-5.328,-5.3288,-5.3381,-5.318,-5.3498,-5.3511,-5.3524,-5.3727,-5.376,-5.3788,0,0,0,0,0,-5.3448,-5.3577,-5.3516,-5.352,-5.3514,-5.3552,-5.355,-5.3457,-5.3368,-5.3425,-5.3373,-5.3274,-5.3368,-5.329,-5.3298,-5.3393,-5.3491,-5.3507,-5.3523,-5.3714,-5.3754,-5.3787,0,0,0,0,0,0,-5.3657,-5.3566,-5.3498,-5.3609,-5.359,-5.3518,-5.3587,-5.3502,-5.3509,-5.349,-5.3376,-5.3366,-5.3466,-5.3438,-5.3353,-5.3541,-5.3413,-5.3432,-5.3556,-5.3593,-5.3623,-5.3628,-5.3183,0,0,0,0,0,-5.3716,-5.3752,-5.3672,-5.3778,-5.3771,-5.3682,-5.3695,-5.3624,-5.36,-5.3591,-5.3545,-5.3527,-5.3551,-5.3571,-5.3589,-5.3722,-5.3709,-5.3792,-5.3822,-5.3848,-5.3865,-5.3933,-5.3969,-5.3583,-5.3583,-5.3583,0,0,-5.3839,-5.3793,-5.3824,-5.3819,-5.3795,-5.3837,-5.3676,-5.3727,-5.3757,-5.3599,-5.3675,-5.3641,-5.3613,-5.3722,-5.3768,-5.3702,-5.3968,-5.3868,-5.3889,-5.3892,-5.3953,-5.399,-5.4023,-5.3594,-5.3592,-5.359,0,0,-5.4083,-5.4053,-5.4137,-5.4116,-5.4082,-5.4021,-5.4042,-5.3983,-5.3954,-5.4027,-5.3909,-5.3945,-5.3991,-5.3975,-5.3974,-5.4213,-5.4123,-5.4223,-5.4381,-5.4449,-5.448,-5.4506,-5.4592,-5.4624,-5.424,-5.4241,-5.4241,0,-5.424,-5.4296,-5.4192,-5.425,-5.4252,-5.4109,-5.4195,-5.4181,-5.4156,-5.4161,-5.4087,-5.4141,-5.4112,-5.4215,-5.4274,-5.4277,-5.4298,-5.4228,-5.4484,-5.4509,-5.4532,-5.4613,-5.4645,-5.4253,-5.4251,-5.425,-5.4249,0,-5.4492,-5.4533,-5.4606,-5.4582,-5.4592,-5.4665,-5.4573,-5.4596,-5.4525,-5.4473,-5.4551,-5.4511,-5.4519,-5.4539,-5.4471,-5.4633,-5.4593,-5.4504,-5.4372,-5.4583,-5.4657,-5.4687,-5.4271,-5.4266,-5.4262,-5.4259,0,0,-5.4866,-5.4783,-5.4812,-5.4799,-5.4751,-5.4782,-5.4848,-5.4854,-5.4876,-5.4864,-5.4917,-5.4959,-5.4875,-5.4874,-5.4803,-5.4864,-5.5056,-5.4766,-5.4763,-5.4821,-5.5233,-5.5301,-5.5338,-5.4996,-5.5001,-5.5005,-5.5235,0,-5.5098,-5.5203,-5.5112,-5.5236,-5.5273,-5.5138,-5.5195,-5.5173,-5.5127,-5.5153,-5.5102,-5.5133,-5.502,-5.5019,-5.5072,-5.5021,-5.5137,-5.5003,-5.5046,-5.5049,-5.5057,-5.5376,-5.5448,-5.5666,-5.5263,-5.5268,-5.5271,0,-5.5381,-5.5379,-5.5507,-5.545,-5.5462,-5.5515,-5.5513,-5.5539,-5.5512,-5.5474,-5.5473,-5.5385,-5.5448,-5.532,-5.5406,-5.5317,-5.5329,-5.5307,-5.5314,-5.5314,-5.5173,-5.5385,-5.5734,-5.5767,-5.5316,-5.5312,-5.5309,0,-5.5642,-5.5672,-5.5751,-5.5745,-5.568,-5.5721,-5.5696,-5.5662,-5.5671,-5.567,-5.5675,-5.5683,-5.5688,-5.5697,-5.5615,-5.5529,-5.5712,-5.5577,-5.5683,-5.5685,-5.5727,-5.5726,-5.6083,-5.5736,-5.5736,-5.5735,-5.5734,0,-5.5909,-5.5993,-5.5867,-5.5917,-5.6006,-5.5901,-5.5993,-5.5955,-5.5926,-5.5966,-5.5851,-5.5892,-5.5781,-5.5812,-5.5748,-5.5829,-5.5833,-5.5805,-5.5787,-5.5815,-5.5819,-5.5821,-5.5804,-5.5744,-5.5742,-5.574,-5.5739,0,-5.6216,-5.6134,-5.6212,-5.6144,-5.6129,-5.6198,-5.614,-5.6184,-5.613,-5.6183,-5.619,-5.6106,-5.6135,-5.6054,-5.6072,-5.6029,-5.6147,-5.6104,-5.6155,-5.6142,-5.6253,-5.6244,-5.6624,-5.6669,-5.6295,-5.6298,-5.6302,0,-5.6391,-5.6452,-5.639,-5.6407,-5.6388,-5.6419,-5.6427,-5.6326,-5.634,-5.6313,-5.6361,-5.6381,-5.6391,-5.6445,-5.6387,-5.64,-5.6357,-5.649,-5.6359,-5.6385,-5.6359,-5.6357,-5.6363,-5.6517,-5.6522,-5.6526,-5.6529,0,-5.6713,-5.6669,-5.6684,-5.6686,-5.6699,-5.6696,-5.6685,-5.6707,-5.6599,-5.6621,-5.6648,-5.6657,-5.6674,-5.6696,-5.6696,-5.6672,-5.6584,-5.657,-5.6595,-5.6625,-5.6652,-5.6638,-5.6229,-5.6562,-5.6559,-5.6556,-5.6554,-5.6553,-5.6958,-5.7006,-5.6969,-5.699,-5.6971,-5.6963,-5.7001,-5.695,-5.6971,-5.6975,-5.6915,-5.6956,-5.6927,-5.6918,-5.6904,-5.6936,-5.6875,-5.6912,-5.6921,-5.6932,-5.695,-5.6647,-5.6936,-5.6935,-5.6934,-5.6933,-5.6932,0,-5.7273,-5.7242,-5.7262,-5.725,-5.7267,-5.7179,-5.7163,-5.7184,-5.722,-5.72,-5.7212,-5.7245,-5.7265,-5.7208,-5.7221,-5.7257,-5.7217,-5.7264,-5.726,-5.7256,-5.7004,-5.6981,-5.7296,-5.7296,-5.7296,-5.7296,-5.7296,-5.7296,-5.7439,-5.7514,-5.7466,-5.7532,-5.75,-5.7537,-5.7536,-5.7529,-5.7512,-5.7553,-5.7568,-5.753,-5.7496,-5.7505,-5.752,-5.7503,-5.7513,-5.7575,-5.7544,-5.731,-5.7274,-5.724,-5.7218,-5.7578,-5.7578,-5.7793,-5.7795,-5.7797]},{"header":{"parameterUnit":"m.s-1","parameterCategory":1,"la1":30.2991,"la2":30.254,"lo1":-89.0895,"lo2":-89.0444,"dy":0.0017,"dx":0.0017,"nx":28,"ny":28,"refTime":"2025-12-04T03:00:00:Z","depth":0,"parameterNumber":3,"parameterNumberName":"V-component_of_WINDS"},"data":[0,0,0,0,0,0,0,0,0,0,0,0,0,0,0,0,0,0,0,0,0,0,0,0,0,0,0,0,0,0,0,0,0,0,0,0,0,0,0,0,0,0,0,0,0,0,0,0,0,0,0,0,0,0,0,0,0,0,-2.2161,-2.2162,0,-2.2251,-2.2252,-2.2253,-2.2311,-2.2311,-2.2312,-2.2312,-2.2399,-2.2401,-2.2403,0,0,0,0,0,0,0,0,0,0,0,0,0,-2.2033,-2.2035,-2.2161,-2.2162,-2.2163,-2.2251,-2.2252,-2.2253,-2.2311,-2.2311,-2.2312,-2.2312,-2.2399,-2.2401,-2.2403,0,0,0,0,0,0,0,0,0,0,0,0,0,-2.2102,-2.2035,-2.2161,-2.2202,-2.2207,-2.225,-2.2252,-2.2253,-2.2311,-2.2311,-2.2312,-2.2312,-2.2398,-2.2401,-2.2404,-2.2411,0,0,-2.2413,-2.2414,0,0,0,0,0,0,0,0,-2.2098,-2.2107,-2.2195,-2.22,-2.2205,-2.227,-2.2239,-2.2306,-2.2311,-2.2271,-2.2312,-2.2313,-2.2356,-2.2362,-2.2378,-2.2415,-2.2419,-2.2413,-2.2415,-2.2416,-2.2417,0,0,0,0,0,0,0,-2.2093,-2.2103,-2.2196,-2.2196,-2.2202,-2.2215,-2.2225,-2.2252,-2.2309,-2.2275,-2.2279,-2.2289,-2.2358,-2.2374,-2.238,-2.242,-2.2413,-2.2415,-2.2417,-2.2418,-2.2465,-2.2465,0,0,0,0,0,0,-2.2082,-2.2099,-2.2193,-2.2199,-2.2152,-2.2217,-2.2228,-2.2249,-2.2309,-2.2319,-2.2289,-2.2292,-2.2369,-2.2376,-2.2383,-2.2395,-2.2416,-2.2419,-2.242,-2.2466,-2.2465,-2.2464,0,0,0,0,0,0,-2.2079,-2.209,-2.219,-2.215,-2.2164,-2.2218,-2.2241,-2.225,-2.2267,-2.232,-2.2329,-2.2295,-2.237,-2.2379,-2.2403,-2.2398,-2.242,-2.2423,-2.2466,-2.2466,-2.2465,-2.2417,0,0,0,0,0,0,-2.2076,-2.2089,-2.2094,-2.215,-2.2166,-2.221,-2.224,-2.2251,-2.2272,-2.2277,-2.2328,-2.2337,-2.2371,-2.2399,-2.2406,-2.2403,-2.2425,-2.2467,-2.2466,-2.2465,-2.242,-2.2415,-2.2411,0,0,0,0,0,-2.2071,-2.2076,-2.2094,-2.2105,-2.2173,-2.221,-2.2219,-2.2259,-2.2272,-2.2276,-2.2309,-2.2336,-2.2398,-2.2401,-2.241,-2.2407,-2.2468,-2.2466,-2.2465,-2.2422,-2.2416,-2.2411,0,0,0,0,0,0,-2.2017,-2.2085,-2.2105,-2.2129,-2.2163,-2.222,-2.2226,-2.2252,-2.2282,-2.2285,-2.2332,-2.2343,-2.2362,-2.2387,-2.2389,-2.2416,-2.2435,-2.2436,-2.2399,-2.2394,-2.239,-2.2383,-2.2428,0,0,0,0,0,-2.2008,-2.2034,-2.2091,-2.2107,-2.2123,-2.2171,-2.2189,-2.2217,-2.2254,-2.2268,-2.2304,-2.2337,-2.2364,-2.238,-2.2408,-2.2423,-2.2434,-2.2426,-2.2421,-2.2418,-2.2417,-2.2425,-2.2422,-2.2461,-2.2461,-2.2461,0,0,-2.199,-2.203,-2.2043,-2.2097,-2.2127,-2.2151,-2.2183,-2.2208,-2.2225,-2.2271,-2.2297,-2.2323,-2.2363,-2.2383,-2.2393,-2.2404,-2.2409,-2.2416,-2.2413,-2.2415,-2.2424,-2.242,-2.2417,-2.246,-2.246,-2.246,0,0,-2.1969,-2.2002,-2.2019,-2.2048,-2.2093,-2.2125,-2.2128,-2.2181,-2.2201,-2.2227,-2.2262,-2.2282,-2.2328,-2.2355,-2.2374,-2.236,-2.2385,-2.2368,-2.2346,-2.2353,-2.235,-2.2347,-2.2341,-2.2338,-2.2368,-2.2367,-2.2367,0,-2.194,-2.1979,-2.2023,-2.2045,-2.2067,-2.2111,-2.2126,-2.2152,-2.2203,-2.2215,-2.2227,-2.2285,-2.2315,-2.234,-2.2337,-2.2351,-2.2355,-2.2362,-2.2347,-2.2345,-2.2343,-2.2338,-2.2335,-2.2365,-2.2365,-2.2366,-2.2366,0,-2.194,-2.1967,-2.1974,-2.2023,-2.2046,-2.2064,-2.2109,-2.2125,-2.2151,-2.218,-2.2205,-2.2243,-2.2278,-2.2286,-2.2311,-2.2314,-2.2319,-2.2338,-2.2359,-2.2336,-2.2332,-2.233,-2.2362,-2.2362,-2.2363,-2.2364,0,0,-2.1889,-2.1962,-2.1964,-2.1986,-2.2038,-2.2058,-2.2077,-2.2113,-2.2126,-2.2159,-2.2175,-2.2211,-2.2229,-2.2251,-2.2279,-2.2285,-2.227,-2.2303,-2.2305,-2.2295,-2.2274,-2.2259,-2.2256,-2.2286,-2.2286,-2.2286,-2.227,0,-2.1875,-2.1914,-2.1953,-2.1977,-2.2,-2.2041,-2.2058,-2.209,-2.2118,-2.214,-2.217,-2.2195,-2.2217,-2.223,-2.2238,-2.227,-2.2266,-2.2272,-2.23,-2.23,-2.2288,-2.2254,-2.2238,-2.2222,-2.2269,-2.2269,-2.2268,0,-2.1864,-2.1896,-2.1923,-2.1971,-2.1982,-2.1997,-2.2032,-2.2053,-2.209,-2.2109,-2.2133,-2.2162,-2.2182,-2.22,-2.2226,-2.2229,-2.2243,-2.226,-2.226,-2.2264,-2.2283,-2.2255,-2.2217,-2.2214,-2.2266,-2.2267,-2.2267,0,-2.1822,-2.1872,-2.1894,-2.1912,-2.1969,-2.1978,-2.2002,-2.2039,-2.2057,-2.2087,-2.2099,-2.213,-2.2147,-2.2169,-2.2205,-2.2215,-2.2227,-2.2248,-2.2242,-2.2241,-2.2243,-2.2242,-2.2205,-2.2252,-2.2252,-2.2252,-2.2252,0,-2.1802,-2.1816,-2.1876,-2.1889,-2.1905,-2.1949,-2.1963,-2.1991,-2.2023,-2.2041,-2.2078,-2.2093,-2.214,-2.216,-2.2188,-2.2205,-2.2212,-2.2227,-2.2234,-2.2224,-2.2221,-2.2233,-2.2234,-2.2252,-2.2252,-2.2252,-2.2252,0,-2.1758,-2.1799,-2.1825,-2.1877,-2.1891,-2.19,-2.1944,-2.1957,-2.1986,-2.2008,-2.2015,-2.2061,-2.2087,-2.2125,-2.2162,-2.218,-2.2192,-2.2204,-2.218,-2.2184,-2.2175,-2.2175,-2.2144,-2.2141,-2.2191,-2.219,-2.219,0,-2.1743,-2.1755,-2.1808,-2.1823,-2.1846,-2.187,-2.1889,-2.1931,-2.1949,-2.1991,-2.1998,-2.2027,-2.2052,-2.2091,-2.2126,-2.2153,-2.2166,-2.2153,-2.217,-2.2159,-2.2164,-2.2163,-2.2163,-2.2149,-2.2148,-2.2147,-2.2147,0,-2.171,-2.1729,-2.1756,-2.1789,-2.1811,-2.1839,-2.1868,-2.1878,-2.1926,-2.1944,-2.1971,-2.1991,-2.2028,-2.2055,-2.2088,-2.211,-2.2135,-2.2141,-2.2141,-2.213,-2.2115,-2.2122,-2.2168,-2.2142,-2.2142,-2.2143,-2.2143,-2.2143,-2.1679,-2.1691,-2.173,-2.1758,-2.1785,-2.1811,-2.1825,-2.1857,-2.1881,-2.1916,-2.1938,-2.1964,-2.1998,-2.2044,-2.2065,-2.2084,-2.2095,-2.2095,-2.2095,-2.2094,-2.209,-2.2112,-2.209,-2.209,-2.209,-2.2091,-2.2091,0,-2.1647,-2.1674,-2.1699,-2.174,-2.1761,-2.1785,-2.1818,-2.1833,-2.1856,-2.1886,-2.191,-2.194,-2.1966,-2.2003,-2.2031,-2.2039,-2.2051,-2.2045,-2.2045,-2.2049,-2.2079,-2.2076,-2.2035,-2.2035,-2.2035,-2.2035,-2.2035,-2.2035,-2.1633,-2.1654,-2.1677,-2.1711,-2.1737,-2.1764,-2.178,-2.1804,-2.1828,-2.186,-2.1883,-2.1907,-2.1939,-2.197,-2.1994,-2.2004,-2.2012,-2.2002,-2.2015,-2.2042,-2.2047,-2.2052,-2.2049,-2.2003,-2.2003,-2.1983,-2.1983,-2.1983]}]]